Stations météo

réclame
Mon MeteoGroup
Baruth, Allemagne (10376): Température de l'air & dewpoint: 17.10.2018 07:00:00 - 23.10.2018 07:00:00 (CEST)Baruth, Allemagne (10376): Température de l'air 5cm & Température de l'air -5cm: 17.10.2018 07:00:00 - 23.10.2018 07:00:00 (CEST)Baruth, Allemagne (10376): Température de l'air -20cm & Température de l'air -100cm: 17.10.2018 07:00:00 - 23.10.2018 07:00:00 (CEST)Baruth, Allemagne (10376): Vitesse du vent & gusts: 17.10.2018 07:00:00 - 23.10.2018 07:00:00 (CEST)Baruth, Allemagne (10376): Direction du vent: 17.10.2018 07:00:00 - 23.10.2018 07:00:00 (CEST)Baruth, Allemagne (10376): reduced air pressure: 17.10.2018 07:00:00 - 23.10.2018 07:00:00 (CEST)Baruth, Allemagne (10376): visibility: 17.10.2018 07:00:00 - 23.10.2018 07:00:00 (CEST)Baruth, Allemagne (10376): Ensoleillement: 17.10.2018 07:00:00 - 23.10.2018 07:00:00 (CEST)Baruth, Allemagne (10376): Quantités de précipitations: 17.10.2018 07:00:00 - 23.10.2018 07:00:00 (CEST)
Date & Time tt [°C] td [°C] tt 5cm [°C] tt -5cm [°C] tt -20cm [°C] tt -100cm [°C] ff [km/h] ff [knt] fx [km/h] fx [knt] dd ppp [hPa] vv [km] sd [min] rr [mm]
23.10.2018 07:00:00 5,5 1,9 4,2 4,1 7,1 12,9 21 12 34 19 WSW 1021,0 46 0 0,0
23.10.2018 06:00:00 5,3 2,3 3,6 3,8 7,2 12,9 21 11 30 16 WSW 1022,5 34 0 0,0
23.10.2018 05:00:00 4,1 2,2 2,8 3,6 7,4 12,9 13 7 19 11 W 1024,4 30 0 0,0
23.10.2018 04:00:00 3,6 2,1 2,1 3,5 7,6 12,9 10 5 19 10 WSW 1025,1 35 0 0,0
23.10.2018 03:00:00 3,2 1,6 1,5 3,5 7,8 12,9 12 7 16 9 WSW 1026,5 33 0 0,0
23.10.2018 02:00:00 2,9 1,7 0,7 3,8 8,1 13,0 8 5 14 8 W 1027,4 34 0 0,0
23.10.2018 01:00:00 3,2 2,2 0,5 4,0 8,4 13,0 9 5 12 7 W 1028,4 36 0 0,0
23.10.2018 00:00:00 3,3 2,5 0,4 4,5 8,8 13,0 7 4 11 6 WNW 1028,8 32 0 0,0
22.10.2018 23:00:00 4,1 3,4 1,1 5,0 9,1 13,0 8 5 10 6 W 1029,1 33 0 0,0
22.10.2018 22:00:00 4,4 3,9 -0,2 5,7 9,4 13,0 7 4 11 6 W 1029,6 13 0 0,0
22.10.2018 21:00:00 4,7 3,9 0,6 6,8 9,7 13,1 7 4 9 5 W 1029,4 0,2 0 0,0
22.10.2018 20:00:00 7,0 6,2 4,7 8,0 9,9 13,1 9 5 13 7 WNW 1029,1 17 0 0,0
22.10.2018 19:00:00 8,2 7,3 6,8 8,9 9,9 13,1 7 4 11 6 W 1028,9 20 0 0,0
22.10.2018 18:00:00 8,5 7,2 7,4 9,5 9,9 13,1 10 5 15 8 W 1028,6 32 36 0,0
22.10.2018 17:00:00 10,1 8,0 9,9 10,4 9,7 13,1 9 5 18 10 WNW 1027,8 43 32 0,0
22.10.2018 16:00:00 9,4 7,5 9,3 10,0 9,5 13,2 8 4 16 9 WNW 1027,8 49 0 0,0
22.10.2018 15:00:00 9,2 7,6 9,1 9,6 9,4 13,2 4 2 25 13 N 1027,4 21 0 0,5
22.10.2018 14:00:00 9,7 8,7 9,8 9,6 9,1 13,2 9 5 20 11 W 1027,0 2,5 0 0,7
22.10.2018 13:00:00 10,0 6,7 9,6 9,7 8,8 13,2 12 6 21 12 WNW 1027,0 7 0 0,0
22.10.2018 12:00:00 10,7 5,2 12,1 8,9 8,4 13,2 9 5 16 9 W 1026,4 18 0 0,0
22.10.2018 11:00:00 10,0 5,2 10,8 7,8 8,2 13,2 6 4 11 6 WSW 1026,3 18 0 0,0
22.10.2018 10:00:00 6,7 4,6 7,9 6,2 8,1 13,3 5 3 8 4 SW 1026,4 13 0 0,0
22.10.2018 09:00:00 1,8 0,7 2,6 5,1 8,2 13,3 2 1 6 4 S 1026,4 9 0 0,0
22.10.2018 08:00:00 -1,1 -2,0 -2,3 4,5 8,4 13,3 4 2 6 3 SE 1026,1 9 0 0,0
22.10.2018 07:00:00 -0,8 -1,7 -2,8 4,7 8,6 13,3 5 3 6 3 E 1026,1 9 0 0,0
22.10.2018 06:00:00 -1,3 -2,2 -3,0 4,9 8,9 13,3 2 1 6 4 E 1026,1 10 0 0,0
22.10.2018 05:00:00 -1,2 -2,1 -2,8 5,2 9,1 13,3 3 2 7 4 E 1026,1 14 0 0,0
22.10.2018 04:00:00 -0,7 -1,6 -3,1 5,4 9,4 13,3 4 2 8 4 E 1026,6 13 0 0,0
22.10.2018 03:00:00 -0,5 -1,4 -2,6 5,7 9,7 13,3 3 2 6 3 E 1027,0 16 0 0,0
22.10.2018 02:00:00 0,1 -0,7 -2,6 6,1 10,0 13,3 4 2 7 4 E 1027,3 11 0 0,0
22.10.2018 01:00:00 0,3 -0,5 -2,0 6,5 10,3 13,3 4 2 5 3 ESE 1027,8 11 0 0,0
22.10.2018 00:00:00 0,8 -0,3 -2,3 7,0 10,6 13,4 3 1 5 3 E 1027,9 20 0 0,0
21.10.2018 23:00:00 2,5 1,3 -0,5 7,5 11,0 13,4 5 3 8 5 ESE 1027,9 22 0 0,0
21.10.2018 22:00:00 2,7 1,5 -1,4 8,1 11,4 13,4 6 3 7 4 ESE 1028,1 20 0 0,0
21.10.2018 21:00:00 2,8 1,7 -1,1 8,9 11,7 13,4 6 3 7 4 ESE 1028,2 20 0 0,0
21.10.2018 20:00:00 4,1 2,7 0,2 9,9 12,0 13,4 4 2 5 3 ESE 1028,1 22 0 0,0
21.10.2018 19:00:00 6,2 3,9 1,6 11,4 12,2 13,4 2 1 4 2 SE 1028,0 28 0 0,0
21.10.2018 18:00:00 10,9 4,1 6,3 13,2 12,2 13,4 4 2 10 5 SW 1027,8 58 43 0,0
21.10.2018 17:00:00 14,7 4,6 15,3 14,4 11,9 13,5 4 2 12 7 W 1027,9 26 60 0,0
21.10.2018 16:00:00 14,0 4,7 13,9 14,9 11,5 13,5 6 3 12 6 W 1028,3 28 48 0,0
21.10.2018 15:00:00 14,2 4,3 16,9 13,8 11,1 13,5 7 4 12 6 NE 1028,6 52 37 0,0
21.10.2018 14:00:00 13,1 5,0 12,4 13,4 10,6 13,5 0 0 10 5 N 1029,0 47 16 0,0
21.10.2018 13:00:00 13,2 4,9 14,8 13,7 10,0 13,5 6 4 14 8 SSE 1029,3 38 58 0,0
21.10.2018 12:00:00 12,5 6,6 15,3 11,3 9,5 13,5 3 2 9 5 SE 1030,0 19 60 0,0
21.10.2018 11:00:00 9,6 5,7 10,9 8,6 9,3 13,5 3 2 9 5 SW 1030,2 11 60 0,0
21.10.2018 10:00:00 6,2 3,7 5,9 6,6 9,4 13,6 5 3 13 7 WNW 1030,3 14 60 0,0
21.10.2018 09:00:00 1,1 -0,6 -0,2 5,7 9,7 13,6 4 2 8 5 W 1029,8 13 44 0,0
21.10.2018 08:00:00 -0,9 -1,9 -3,5 5,9 10,0 13,6 3 2 8 4 W 1029,3 8 0 0,0
21.10.2018 07:00:00 1,7 1,1 -2,7 6,5 10,3 13,6 5 3 7 4 W 1029,2 8 0 0,0
21.10.2018 06:00:00 2,7 1,9 -1,2 7,1 10,6 13,6 5 3 6 4 W 1028,9 10 0 0,0
21.10.2018 05:00:00 3,9 2,9 0,0 7,8 10,8 13,6 5 3 8 4 W 1028,6 13 0 0,0
21.10.2018 04:00:00 5,0 3,9 3,4 8,2 11,0 13,6 5 3 8 5 WNW 1028,6 17 0 0,0
21.10.2018 03:00:00 4,8 3,2 0,4 8,8 11,2 13,6 7 4 10 5 W 1028,7 10 0 0,0
21.10.2018 02:00:00 7,7 4,9 4,1 9,7 11,4 13,7 8 4 10 6 W 1028,4 27 0 0,0
21.10.2018 01:00:00 8,6 5,2 7,8 9,8 11,5 13,7 7 4 10 5 W 1028,5 23 0 0,1
21.10.2018 00:00:00 8,8 3,8 6,7 10,0 11,6 13,7 6 3 11 6 W 1028,7 36 0 0,0
20.10.2018 23:00:00 8,8 3,5 7,3 10,3 11,7 13,7 6 4 9 5 W 1028,9 30 0 0,0
20.10.2018 22:00:00 9,1 3,4 7,7 10,5 11,8 13,7 5 3 8 5 W 1029,1 34 0 0,0
20.10.2018 21:00:00 9,1 3,4 7,0 10,7 12,0 13,7 5 3 8 5 W 1028,9 28 0 0,0
20.10.2018 20:00:00 9,1 3,2 7,4 11,2 12,1 13,8 7 4 10 5 W 1028,7 36 0 0,0
20.10.2018 19:00:00 10,2 3,5 9,3 11,7 12,1 13,8 7 4 11 6 W 1028,6 45 0 0,0
20.10.2018 18:00:00 11,0 3,0 10,2 12,4 12,1 13,8 8 4 17 9 WNW 1028,5 59 0 0,0
20.10.2018 17:00:00 12,0 2,2 11,9 13,2 11,9 13,8 7 4 18 10 WNW 1028,6 66 0 0,0
20.10.2018 16:00:00 12,2 2,0 12,9 13,6 11,6 13,8 9 5 19 10 NW 1028,6 47 3 0,0
20.10.2018 15:00:00 12,4 2,1 13,8 13,6 11,2 13,8 11 6 24 13 NW 1028,9 48 1 0,0
20.10.2018 14:00:00 12,4 2,5 13,9 13,8 10,7 13,8 9 5 29 16 NW 1028,8 31 46 0,0
20.10.2018 13:00:00 12,5 3,1 15,1 12,7 10,1 13,8 15 8 24 13 W 1029,0 29 59 0,0
20.10.2018 12:00:00 10,8 4,1 14,3 10,3 9,7 13,9 9 5 18 10 W 1029,3 33 43 0,0
20.10.2018 11:00:00 6,7 4,0 8,3 8,1 9,6 13,9 5 3 14 8 W 1029,3 23 1 0,0
20.10.2018 10:00:00 4,1 3,0 5,1 6,8 9,6 13,9 6 3 12 7 WNW 1029,4 14 0 0,0
20.10.2018 09:00:00 0,3 -0,5 1,4 5,7 9,8 13,9 2 1 6 4 WNW 1028,8 11 0 0,0
20.10.2018 08:00:00 -1,5 -2,3 -4,0 5,4 10,1 13,9 5 3 6 4 WNW 1028,2 14 0 0,0
20.10.2018 07:00:00 -0,1 -1,0 -4,5 5,9 10,4 13,9 5 3 12 7 W 1027,8 6 0 0,0
20.10.2018 06:00:00 0,4 -0,3 -3,3 6,3 10,7 13,9 10 5 14 7 W 1027,7 11 0 0,0
20.10.2018 05:00:00 -0,5 -1,4 -1,7 6,6 11,0 13,9 6 3 10 5 W 1027,4 25 0 0,0
20.10.2018 04:00:00 -1,0 -1,8 -2,1 6,8 11,3 13,9 3 1 7 4 NW 1026,8 25 0 0,0
20.10.2018 03:00:00 -1,4 -2,1 -3,6 7,1 11,7 13,9 2 1 6 4 W 1026,9 19 0 0,0
20.10.2018 02:00:00 -0,6 -1,4 -3,6 7,7 12,1 13,8 4 2 6 4 NW 1026,8 24 0 0,0
20.10.2018 01:00:00 -0,4 -1,1 -2,8 8,3 12,6 13,8 2 1 5 3 W 1026,5 2,2 0 0,0
20.10.2018 00:00:00 -0,3 -1,3 -2,3 8,9 13,0 13,8 3 1 7 4 W 1026,7 0,8 0 0,0
19.10.2018 23:00:00 1,3 0,5 -1,5 9,7 13,5 13,8 3 2 6 4 W 1026,7 15 0 0,0
19.10.2018 22:00:00 3,2 2,3 -0,9 10,5 13,9 13,8 3 2 7 4 W 1026,4 19 0 0,0
19.10.2018 21:00:00 4,4 3,1 0,6 11,5 14,4 13,8 3 1 5 3 W 1026,2 10 0 0,0
19.10.2018 20:00:00 5,7 3,8 2,0 12,7 14,8 13,8 5 3 6 3 W 1025,5 43 0 0,0
19.10.2018 19:00:00 7,6 4,2 3,5 14,2 15,0 13,8 2 1 7 4 W 1025,1 60 0 0,0
19.10.2018 18:00:00 11,8 4,4 8,2 16,1 15,1 13,8 4 2 10 5 WNW 1024,7 70 47 0,0
19.10.2018 17:00:00 14,3 4,0 15,9 17,5 14,9 13,8 3 2 14 8 NNW 1024,5 66 60 0,0
19.10.2018 16:00:00 14,7 4,1 17,0 18,3 14,6 13,8 6 3 16 9 NW 1024,6 32 60 0,0
19.10.2018 15:00:00 14,3 3,1 17,5 18,3 14,1 13,8 7 4 16 9 NNW 1025,0 46 60 0,0
19.10.2018 14:00:00 14,0 3,5 19,0 17,6 13,5 13,8 6 3 16 8 NNW 1025,4 44 60 0,0
19.10.2018 13:00:00 13,2 5,7 17,6 16,0 13,1 13,9 9 5 16 9 WNW 1025,8 37 57 0,0
19.10.2018 12:00:00 11,7 7,0 14,0 13,8 12,9 13,9 6 4 13 7 NNW 1026,0 45 0 0,0
19.10.2018 11:00:00 10,8 6,8 12,1 12,8 12,8 13,9 8 4 13 7 NW 1026,1 43 0 0,0
19.10.2018 10:00:00 10,2 6,5 11,0 12,2 12,8 13,9 6 4 10 6 NW 1025,6 48 0 0,0
19.10.2018 09:00:00 9,8 6,5 10,2 11,8 12,9 13,9 4 2 12 6 NW 1025,2 42 0 0,0
19.10.2018 08:00:00 9,9 6,7 9,8 11,8 13,0 13,9 4 2 11 6 WNW 1024,6 44 0 0,0
19.10.2018 07:00:00 10,2 6,6 10,1 12,0 13,1 13,9 4 2 13 7 NW 1024,3 32 0 0,0
19.10.2018 06:00:00 10,5 6,9 10,4 12,2 13,2 13,9 4 2 13 7 NNW 1024,1 45 0 0,0
19.10.2018 05:00:00 10,7 6,8 10,7 12,3 13,3 13,9 6 3 14 8 NNW 1023,9 27 0 0,0
19.10.2018 04:00:00 11,5 6,6 11,3 12,5 13,4 13,9 5 3 14 7 NNW 1023,9 25 0 0,0
19.10.2018 03:00:00 12,0 7,2 11,8 12,8 13,5 13,9 4 2 14 7 N 1023,8 55 0 0,0
19.10.2018 02:00:00 12,3 8,9 11,8 13,0 13,6 13,9 4 2 11 6 NNW 1024,0 37 0 0,0
19.10.2018 01:00:00 12,5 9,4 12,2 13,2 13,7 13,9 5 3 18 10 NNW 1023,9 28 0 0,0
19.10.2018 00:00:00 12,8 10,5 12,3 13,4 13,8 13,9 4 2 13 7 NNW 1023,6 12 0 0,0
18.10.2018 23:00:00 12,8 11,3 12,4 13,6 13,8 13,9 4 2 20 11 N 1023,4 6 0 0,0
18.10.2018 22:00:00 13,1 12,2 13,0 13,8 13,9 13,9 5 3 13 7 NNW 1023,0 3,1 0 0,1
18.10.2018 21:00:00 12,8 12,0 12,8 14,0 13,9 13,9 5 3 10 5 W 1022,6 0,8 0 0,0
18.10.2018 20:00:00 13,1 11,6 13,1 14,2 14,0 13,9 9 5 14 8 W 1022,3 2,9 0 0,0
18.10.2018 19:00:00 13,3 11,1 13,4 14,6 14,0 13,9 8 5 14 7 W 1021,9 4,0 0 0,0
18.10.2018 18:00:00 13,4 10,9 13,5 15,1 14,0 14,0 7 4 17 9 WNW 1021,5 4,9 0 0,0
18.10.2018 17:00:00 13,1 10,4 13,7 16,0 13,8 14,0 12 6 24 13 WNW 1021,3 4,7 0 0,0
18.10.2018 16:00:00 13,4 9,7 14,6 17,1 13,4 14,0 11 6 22 12 WNW 1021,1 6 53 0,0
18.10.2018 15:00:00 15,6 9,2 18,4 17,3 12,9 14,0 11 6 25 14 WNW 1020,8 8 60 0,0
18.10.2018 14:00:00 17,8 9,4 20,8 16,7 12,2 14,0 12 6 22 12 NW 1020,5 9 60 0,0
18.10.2018 13:00:00 17,2 9,6 19,8 15,2 11,6 14,0 11 6 17 9 W 1020,4 6 60 0,0
18.10.2018 12:00:00 14,2 9,0 17,7 13,2 11,2 14,0 6 4 16 8 W 1020,4 4,0 60 0,0
18.10.2018 11:00:00 12,5 9,2 14,0 11,0 10,9 14,0 5 3 10 5 W 1020,7 3,2 56 0,0
18.10.2018 10:00:00 8,1 6,9 8,7 9,0 10,9 14,0 3 1 9 5 SW 1020,7 1,9 27 0,0
18.10.2018 09:00:00 3,9 3,3 4,3 8,2 11,1 14,0 4 2 8 4 W 1020,6 0,1 0 0,0
18.10.2018 08:00:00 2,0 1,1 1,8 8,1 11,2 14,0 0 0 6 3 N 1020,3 0,2 0 0,0
18.10.2018 07:00:00 3,4 2,7 2,9 8,2 11,5 14,0 4 2 10 6 WNW 1019,7 0,6 0 0,0
18.10.2018 06:00:00 2,7 2,0 2,0 8,3 11,7 14,0 3 2 4 2 NW 1019,7 0,2 0 0,0
18.10.2018 05:00:00 2,6 1,8 0,4 8,6 12,0 14,0 3 1 9 5 N 1019,6 0,6 0 0,0
18.10.2018 04:00:00 2,9 2,0 1,0 8,9 12,3 14,0 3 2 6 3 WNW 1019,6 1,7 0 0,0
18.10.2018 03:00:00 2,6 1,8 1,1 9,3 12,6 14,0 2 1 4 2 WNW 1019,8 0,9 0 0,0
18.10.2018 02:00:00 3,7 3,0 1,8 9,8 12,9 14,0 3 2 4 2 WSW 1019,7 0,2 0 0,0
18.10.2018 01:00:00 4,9 4,2 2,4 10,3 13,2 14,0 0 0 6 3 N 1019,6 3,3 0 0,0
18.10.2018 00:00:00 5,3 4,6 3,0 10,8 13,6 14,0 2 1 4 2 SE 1019,7 1,3 0 0,0
17.10.2018 23:00:00 6,4 5,7 3,4 11,4 13,9 14,0 2 1 4 2 ESE 1019,8 1,2 0 0,0
17.10.2018 22:00:00 8,0 7,2 4,4 12,1 14,2 14,0 3 2 8 4 SE 1019,8 3,9 0 0,0
17.10.2018 21:00:00 8,3 7,4 5,4 12,9 14,5 14,1 2 1 4 2 E 1019,5 2,3 0 0,0
17.10.2018 20:00:00 9,6 8,6 6,2 13,9 14,8 14,1 0 0 5 3 N 1019,4 3,2 0 0,0
17.10.2018 19:00:00 12,0 9,5 7,5 15,2 15,0 14,1 3 2 5 3 SE 1019,1 6 0 0,0
17.10.2018 18:00:00 15,6 10,0 11,8 16,9 14,9 14,1 5 3 10 5 SE 1018,6 9 36 0,0
17.10.2018 17:00:00 18,8 9,7 19,1 18,3 14,6 14,1 8 4 12 7 SSE 1018,5 9 60 0,0
17.10.2018 16:00:00 20,0 9,2 21,6 18,9 14,1 14,1 8 5 15 8 SE 1018,5 11 60 0,0
17.10.2018 15:00:00 19,5 8,8 21,7 18,7 13,4 14,1 7 4 16 9 ESE 1018,7 14 60 0,0
17.10.2018 14:00:00 19,5 9,2 22,3 17,8 12,7 14,1 9 5 14 8 ESE 1018,9 11 60 0,0
17.10.2018 13:00:00 18,2 9,5 20,8 16,1 12,0 14,1 3 2 8 4 SW 1019,4 9 60 0,0
17.10.2018 12:00:00 16,2 9,3 18,7 13,8 11,6 14,1 3 1 15 8 ESE 1019,9 7 60 0,0
17.10.2018 11:00:00 12,2 8,1 13,9 11,3 11,3 14,1 8 5 12 7 ESE 1020,2 7 60 0,0
17.10.2018 10:00:00 9,4 6,5 8,9 9,4 11,3 14,1 2 1 6 3 SE 1020,1 6 60 0,0
17.10.2018 09:00:00 5,6 3,7 4,9 8,4 11,5 14,1 0 0 9 5 N 1020,0 4,9 37 0,0
17.10.2018 08:00:00 3,2 2,5 1,0 8,4 11,8 14,1 5 3 7 4 ESE 1020,0 2,2 0 0,0
17.10.2018 07:00:00 4,8 4,0 3,3 8,7 12,0 14,1 6 3 14 8 ESE 1019,6 4,7 0 0,0

tt = Température de l'air
td = dewpoint
tt 5cm = Température de l'air 5cm
tt -5cm = Température de l'air -5cm
tt -20cm = Température de l'air -20cm
tt -100cm = Température de l'air -100cm
ff = Vitesse du vent
fx = gusts
dd = Direction du vent
ppp = reduced air pressure
vv = visibility
sd = Ensoleillement
rr = Quantités de précipitations

stations d'obs. à proximité